, WY

(GMT )
South Pass

Weather History for KFWZ - July, 2013

Change the Weather History Date:

Monday, July 29, 2013

  Actual Average Record
Temperature  
Mean Temperature 60 °F -  
Max Temperature 69 °F - - ()
Min Temperature 51 °F - - ()
Degree Days  
Heating Degree Days 5    
Growing Degree Days 10 (Base 50)    
Moisture  
Dew Point 35 °F    
Average Humidity 43    
Maximum Humidity 62    
Minimum Humidity 24    
Precipitation  
Precipitation 0.00 in - - ()
Sea Level Pressure  
Sea Level Pressure 30.22 in    
Wind  
Wind Speed 6 mph (WSW)    
Max Wind Speed 18 mph    
Max Gust Speed 31 mph    
Visibility 10 miles    
Events Rain , Thunderstorm    
Averages and records for this station are not official NWS values.
T = Trace of Precipitation, MM = Missing Value Source: NWS Daily Summary

Daily Weather History Graph

Daily Weather History Graph

Search for Another Location

Airport or City:

Trip Planner

Search our weather history database for the weather conditions in past years. The results will help you decide how hot, cold, wet, or windy it might be!

Date:

Astronomy

Jul. 29, 2013 Rise Set
Actual Time 6:04 AM MDT 8:37 PM MDT
Civil Twilight 5:32 AM MDT 9:10 PM MDT
Nautical Twilight 4:52 AM MDT 9:50 PM MDT
Astronomical Twilight 4:06 AM MDT 10:35 PM MDT
Moon No Moon Rise 2:00 PM MDT (7/29)
Length of Visible Light 15h 37m
Length of Day
14h 33m
Waning Gibbous, 50% of the Moon is Illuminated
Jul 29
Waning Gibbous
Aug 6
New
Aug 14
First Quarter
Aug 20
Full
Aug 28
Last Quarter

Hourly Weather History & Observations

Time (MDT) Temp. Dew Point Humidity Pressure Visibility Wind Dir Wind Speed Gust Speed Precip Events Conditions
12:15 AM 53.6 °F 37.4 °F 54% 30.14 in 10.0 mi NW 6.9 mph - N/A   Overcast
12:35 AM 53.6 °F 37.4 °F 54% 30.14 in 10.0 mi WNW 4.6 mph - N/A   Overcast
12:55 AM 53.6 °F 37.4 °F 54% 30.14 in 10.0 mi WSW 3.5 mph - N/A   Overcast
1:15 AM 55.4 °F 37.4 °F 51% 30.14 in 10.0 mi Calm Calm - N/A   Overcast
1:55 AM 53.6 °F 37.4 °F 54% 30.14 in 10.0 mi Calm Calm - N/A   Overcast
2:15 AM 53.6 °F 37.4 °F 54% 30.14 in 10.0 mi Calm Calm - N/A   Overcast
2:35 AM 53.6 °F 37.4 °F 54% 30.14 in 10.0 mi WSW 4.6 mph - N/A   Overcast
2:55 AM 53.6 °F 37.4 °F 54% 30.15 in 10.0 mi SW 3.5 mph - N/A   Overcast
3:15 AM 53.6 °F 37.4 °F 54% 30.15 in 10.0 mi Calm Calm - N/A   Overcast
3:35 AM 53.6 °F 37.4 °F 54% 30.15 in 10.0 mi Calm Calm - N/A   Overcast
3:55 AM 53.6 °F 37.4 °F 54% 30.15 in 10.0 mi SW 3.5 mph - N/A   Overcast
4:15 AM 53.6 °F 37.4 °F 54% 30.15 in 10.0 mi SW 3.5 mph - N/A   Overcast
4:35 AM 51.8 °F 39.2 °F 62% 30.15 in 10.0 mi SW 3.5 mph - N/A   Overcast
4:55 AM 51.8 °F 39.2 °F 62% 30.16 in 10.0 mi SW 3.5 mph - N/A   Overcast
5:15 AM 53.6 °F 39.2 °F 58% 30.16 in 10.0 mi WSW 3.5 mph - N/A   Overcast
5:35 AM 51.8 °F 39.2 °F 62% 30.16 in 10.0 mi West 4.6 mph - N/A   Overcast
5:55 AM 51.8 °F 39.2 °F 62% 30.17 in 10.0 mi West 4.6 mph - N/A   Overcast
6:15 AM 51.8 °F 37.4 °F 58% 30.17 in 10.0 mi West 4.6 mph - N/A   Overcast
6:35 AM 53.6 °F 35.6 °F 51% 30.18 in 10.0 mi West 4.6 mph - N/A   Overcast
6:55 AM 55.4 °F 33.8 °F 44% 30.18 in 10.0 mi WSW 5.8 mph - N/A   Overcast
7:15 AM 55.4 °F 32.0 °F 41% 30.18 in 10.0 mi West 5.8 mph - N/A   Overcast
7:35 AM 55.4 °F 32.0 °F 41% 30.20 in 10.0 mi WSW 6.9 mph - N/A   Overcast
7:55 AM 55.4 °F 32.0 °F 41% 30.20 in 10.0 mi WSW 5.8 mph - N/A   Overcast
8:15 AM 57.2 °F 33.8 °F 41% 30.20 in 10.0 mi WSW 3.5 mph - N/A   Overcast
8:35 AM 59.0 °F 32.0 °F 36% 30.20 in 10.0 mi SW 5.8 mph - N/A   Overcast
8:55 AM 59.0 °F 35.6 °F 42% 30.20 in 10.0 mi SSW 5.8 mph - N/A   Overcast
9:15 AM 60.8 °F 32.0 °F 34% 30.21 in 10.0 mi WSW 6.9 mph - N/A   Overcast
9:35 AM 62.6 °F 32.0 °F 32% 30.20 in 10.0 mi West 5.8 mph - N/A   Overcast
9:55 AM 64.4 °F 32.0 °F 30% 30.21 in 10.0 mi West 9.2 mph 16.1 mph N/A   Overcast
10:15 AM 64.4 °F 32.0 °F 30% 30.21 in 10.0 mi West 9.2 mph - N/A   Overcast
10:35 AM 64.4 °F 30.2 °F 28% 30.21 in 10.0 mi WSW 10.4 mph - N/A   Overcast
10:55 AM 64.4 °F 32.0 °F 30% 30.23 in 10.0 mi WSW 10.4 mph 17.3 mph N/A   Overcast
11:15 AM 64.4 °F 32.0 °F 30% 30.23 in 10.0 mi SW 10.4 mph - N/A   Overcast
11:35 AM 66.2 °F 32.0 °F 28% 30.23 in 10.0 mi WSW 9.2 mph - N/A   Overcast
11:55 AM 66.2 °F 32.0 °F 28% 30.23 in 10.0 mi West 12.7 mph 16.1 mph N/A   Overcast
12:15 PM 66.2 °F 30.2 °F 26% 30.23 in 10.0 mi WNW 10.4 mph - N/A   Overcast
12:35 PM 66.2 °F 30.2 °F 26% 30.23 in 10.0 mi West 8.1 mph - N/A   Overcast
12:55 PM 66.2 °F 30.2 °F 26% 30.24 in 10.0 mi West 10.4 mph 16.1 mph N/A   Overcast
1:15 PM 66.2 °F 32.0 °F 28% 30.24 in 10.0 mi WSW 11.5 mph 17.3 mph N/A   Overcast
1:35 PM 68.0 °F 32.0 °F 26% 30.23 in 10.0 mi West 11.5 mph - N/A Thunderstorm Thunderstorm
1:55 PM 68.0 °F 32.0 °F 26% 30.23 in 10.0 mi WSW 10.4 mph 17.3 mph N/A   Overcast
2:15 PM 68.0 °F 30.2 °F 24% 30.23 in 10.0 mi WSW 9.2 mph - N/A   Overcast
2:35 PM 68.0 °F 32.0 °F 26% 30.23 in 10.0 mi WSW 8.1 mph - N/A   Overcast
2:55 PM 69.8 °F 32.0 °F 25% 30.23 in 10.0 mi WNW 9.2 mph 18.4 mph N/A   Overcast
3:15 PM 68.0 °F 30.2 °F 24% 30.23 in 10.0 mi SW 3.5 mph 16.1 mph N/A   Overcast
3:35 PM 68.0 °F 32.0 °F 26% 30.24 in 10.0 mi West 13.8 mph 20.7 mph N/A   Overcast
3:55 PM 62.6 °F 26.6 °F 26% 30.25 in 10.0 mi WSW 17.3 mph 27.6 mph N/A   Overcast
4:15 PM 60.8 °F 32.0 °F 34% 30.24 in 10.0 mi SW 15.0 mph 26.5 mph N/A   Overcast
4:35 PM 60.8 °F 33.8 °F 36% 30.25 in 10.0 mi SW 11.5 mph 31.1 mph N/A   Overcast
4:55 PM 62.6 °F 32.0 °F 32% 30.25 in 10.0 mi West 6.9 mph - N/A   Overcast
5:15 PM 62.6 °F 32.0 °F 32% 30.25 in 10.0 mi WSW 9.2 mph - N/A   Overcast
5:35 PM 62.6 °F 32.0 °F 32% 30.27 in 10.0 mi WSW 12.7 mph 20.7 mph N/A   Overcast
5:55 PM 59.0 °F 37.4 °F 45% 30.27 in 10.0 mi West 17.3 mph 31.1 mph N/A Thunderstorm Overcast
6:15 PM 55.4 °F 41.0 °F 58% 30.28 in 10.0 mi West 18.4 mph 28.8 mph N/A   Overcast
6:35 PM 57.2 °F 37.4 °F 48% 30.29 in 10.0 mi West 13.8 mph 25.3 mph N/A   Overcast
6:55 PM 55.4 °F 41.0 °F 58% 30.29 in 10.0 mi West 12.7 mph 24.2 mph N/A Rain Light Rain
7:15 PM 55.4 °F 41.0 °F 58% 30.29 in 10.0 mi WNW 15.0 mph 23.0 mph N/A   Overcast
7:35 PM 55.4 °F 39.2 °F 54% 30.30 in 10.0 mi West 8.1 mph - N/A   Overcast
7:55 PM 55.4 °F 37.4 °F 51% 30.30 in 10.0 mi WSW 8.1 mph - N/A Thunderstorm Overcast
8:15 PM 55.4 °F 37.4 °F 51% 30.30 in 10.0 mi West 8.1 mph - N/A   Overcast
8:35 PM 55.4 °F 35.6 °F 47% 30.30 in 10.0 mi WSW 8.1 mph - N/A   Overcast
8:55 PM 55.4 °F 37.4 °F 51% 30.28 in 10.0 mi South 8.1 mph - N/A   Overcast
9:15 PM 55.4 °F 35.6 °F 47% 30.29 in 10.0 mi WSW 4.6 mph - N/A   Overcast
9:35 PM 55.4 °F 35.6 °F 47% 30.30 in 10.0 mi WSW 5.8 mph - N/A   Overcast
9:55 PM 55.4 °F 35.6 °F 47% 30.30 in 10.0 mi West 4.6 mph - N/A   Overcast
10:15 PM 53.6 °F 35.6 °F 51% 30.30 in 10.0 mi West 5.8 mph - N/A   Overcast
10:35 PM 55.4 °F 35.6 °F 47% 30.30 in 10.0 mi West 6.9 mph - N/A   Overcast
10:55 PM 53.6 °F 37.4 °F 54% 30.31 in 10.0 mi North 16.1 mph 21.9 mph N/A   Overcast
11:15 PM 53.6 °F 39.2 °F 58% 30.32 in 10.0 mi NNW 10.4 mph - N/A   Overcast
11:35 PM 51.8 °F 39.2 °F 62% 30.32 in 10.0 mi NNW 8.1 mph - N/A   Overcast
11:55 PM 51.8 °F 39.2 °F 62% 30.32 in 10.0 mi North 5.8 mph - N/A   Overcast